Погода в Кольском

Россия / Калужская область     54°09′23″N   35°21′47″E
темп.,
°C
ветер,
м/с
пор.,
м/с
влажн.,
%
обл.,
%
осадки,
мм/ч
давл.,
гПа
погр.,
м
21 апреля, ср
ср2100:00+2ссв3698100 0.1 1010430
03:00+2с3599100 0.1 1008521
06:00+2сз3699100 0.1 1006512
09:00+2з3698100 0.1 1006589
12:00+4з479099 0.1 1008648
15:00+6зюз4674100 0.1 10091166
18:00+7юз467393 0.0 1010849
21:00+5ююз498499 0.0 1012297
22 апреля, чт
чт2200:00+4ююз4109391 0.1 1012261
03:00+3ююз4998100 0.6 1013229
06:00+4ю5129466 0.2 1014402
09:00+6ю6119172 0.2 1015406
12:00+11ююз687281 0.0 10151049
15:00+12ю697043 0.6 10141215
18:00+12ююз71175100 1.4 1013819
21:00+8ю513906 2.1 1014369
23 апреля, пт
пт2300:00+7ю5149283 0.0 1014328
03:00+7ю6149128 0.0 1013392
06:00+6ю5129471 0.0 1014374
09:00+10ююз7128284 0.1 1013884
12:00+7зсз6790100 0.4 1014419
15:00+6зсз2391100 3.9 1014258
18:00+5сз2489100 1.9 1014258
21:00+5зсз2394100 3.0 1013196
24 апреля, сб
сб2400:00+5сз2495100 1.4 1011382
03:00+3сз4897100 6.8 1010487
06:00+2зсз51098100 3.8 1009459
09:00+4сз5984100 5.3 1008940
12:00+6зсз6960100 0.2 10091689
15:00+8з7949100 0.4 10082086
18:00+7з69545 0.1 10081584
21:00+3з511735 0.1 1010431
25 апреля, вс
вс2500:00+1зюз512835 0.0 1010444
03:00+1зюз5118999 0.0 1010497
06:00+1зюз6118984 0.0 1010606
09:00+3зюз7116882 0.0 10101205
12:00+6зюз81151100 0.1 10102213
15:00+7зюз8105282 0.2 10101828
18:00+6зюз69625 0.4 10101413
21:00+2юз4108161 0.4 1011332